This is the latest recevied weather packets stored in our database for station/object N4HAC. If no packets are shown the sender has not sent any weather packets the latest 10 day(s).
| Time | Temp. | Humidity | Pressure | Rain* | Wind** | Luminosity | Snow |
|---|---|---|---|---|---|---|---|
| 1777941014 | 20.56° C | 53% | 1004.8 hPa | 0 mm | - | 0 W/m² | - |
| 1777940709 | 20.56° C | 51% | 1004.8 hPa | 0 mm | - | 0 W/m² | - |
| 1777940408 | 20.56° C | 51% | 1004.9 hPa | 0 mm | - | 0 W/m² | - |
| 1777940105 | 20.56° C | 50% | 1004.8 hPa | 0 mm | - | 1 W/m² | - |
| 1777939802 | 21.11° C | 49% | 1004.8 hPa | 0 mm | - | 1 W/m² | - |
| 1777939500 | 21.11° C | 49% | 1004.7 hPa | 0 mm | - | 2 W/m² | - |
| 1777939197 | 21.11° C | 49% | 1004.6 hPa | 0 mm | - | 4 W/m² | - |
| 1777938894 | 21.11° C | 49% | 1004.8 hPa | 0 mm | - | 6 W/m² | - |
| 1777938590 | 21.11° C | 49% | 1004.5 hPa | 0 mm | - | 9 W/m² | - |
| 1777938288 | 21.11° C | 49% | 1004.5 hPa | 0 mm | - | 15 W/m² | - |
| 1777937984 | 21.67° C | 48% | 1004.3 hPa | 0 mm | - | 15 W/m² | - |
| 1777937680 | 21.67° C | 48% | 1004.3 hPa | 0 mm | - | 20 W/m² | - |
| 1777937377 | 21.67° C | 47% | 1004.6 hPa | 0 mm | - | 24 W/m² | - |
| 1777937074 | 21.67° C | 47% | 1004.5 hPa | 0 mm | - | 21 W/m² | - |
| 1777936771 | 21.67° C | 46% | 1004.2 hPa | 0 mm | - | 23 W/m² | - |
| 1777936467 | 22.22° C | 45% | 1004.3 hPa | 0 mm | - | 34 W/m² | - |
| 1777936164 | 22.22° C | 45% | 1004.4 hPa | 0 mm | - | 41 W/m² | - |
| 1777935861 | 22.22° C | 43% | 1004.5 hPa | 0 mm | - | 54 W/m² | - |
| 1777935560 | 22.22° C | 44% | 1004.3 hPa | 0 mm | - | 53 W/m² | - |
| 1777935256 | 22.22° C | 44% | 1004.4 hPa | 0 mm | - | 30 W/m² | - |
| 1777934954 | 22.22° C | 44% | 1004.2 hPa | 0 mm | - | 28 W/m² | - |
| 1777934650 | 22.22° C | 44% | 1004.3 hPa | 0 mm | - | 39 W/m² | - |
| 1777934347 | 22.78° C | 43% | 1004.1 hPa | 0 mm | - | 52 W/m² | - |
| 1777934042 | 22.78° C | 42% | 1004.2 hPa | 0 mm | - | 51 W/m² | - |
| 1777933739 | 23.33° C | 42% | 1004 hPa | 0 mm | - | 46 W/m² | - |
* Rain latest hour (hover to see other rain measurements)
** Current wind speed in m/s (hover to see current wind gust speed)